Saginaw Browne, MI

8:05 AM EDT on May 20, 2018 (GMT -0400)
Saginaw County-Browne

Weather History for KHYX - November, 2012

Change the Weather History Date:

Tuesday, November 6, 2012

  Actual Average (KMBS) Record (KMBS)
Temperature  
Mean Temperature 37 °F -  
Max Temperature 42 °F 47 °F 72 °F (2008)
Min Temperature 32 °F 32 °F 26 °F (2010)
Degree Days  
Heating Degree Days 28    
Moisture  
Dew Point 30 °F    
Average Humidity 81    
Maximum Humidity 100    
Minimum Humidity 53    
Precipitation  
Precipitation 0.00 in - - ()
Sea Level Pressure  
Sea Level Pressure 30.06 in    
Wind  
Wind Speed 3 mph (SSE)    
Max Wind Speed 10 mph    
Max Gust Speed -    
Visibility 10 miles    
Events      
Averages and records for this station are not official NWS values.
T = Trace of Precipitation, MM = Missing Value Source: NWS Daily Summary

Daily Weather History Graph

Daily Weather History Graph

Search for Another Location

Airport or City:

Astronomy

Nov. 06, 2012 Rise Set
Actual Time 7:17 AM EST 5:19 PM EST
Civil Twilight 6:47 AM EST 5:49 PM EST
Nautical Twilight 6:13 AM EST 6:23 PM EST
Astronomical Twilight 5:40 AM EST 6:57 PM EST
Moon No Moon Rise 1:08 PM EST (11/6)
Length of Visible Light 11h 02m
Length of Day
10h 01m
Waning Gibbous, 53% of the Moon is Illuminated
Nov 6
Waning Gibbous
Nov 6
Last Quarter
Nov 13
New
Nov 20
First Quarter
Nov 28
Full

Hourly Weather History & Observations

Time (EST) Temp. Windchill Dew Point Humidity Pressure Visibility Wind Dir Wind Speed Gust Speed Precip Events Conditions
12:10 AM 32.0 °F - 30.2 °F 93% 30.16 in 10.0 mi Calm Calm - N/A   Overcast
12:30 AM 32.0 °F - 30.2 °F 93% 30.16 in 10.0 mi Calm Calm - N/A   Overcast
12:50 AM 32.0 °F - 30.2 °F 93% 30.15 in 10.0 mi Calm Calm - N/A   Overcast
1:10 AM 32.0 °F 28.7 °F 32.0 °F 100% 30.15 in 10.0 mi East 3.5 mph - N/A   Overcast
1:30 AM 33.8 °F 30.8 °F 32.0 °F 93% 30.15 in 10.0 mi WNW 3.5 mph - N/A   Overcast
1:50 AM 33.8 °F - 30.2 °F 87% 30.14 in 10.0 mi Calm Calm - N/A   Overcast
2:10 AM 33.8 °F - 32.0 °F 93% 30.14 in 10.0 mi Calm Calm - N/A   Overcast
2:30 AM 33.8 °F - 32.0 °F 93% 30.14 in 10.0 mi Calm Calm - N/A   Overcast
2:51 AM 33.8 °F - 32.0 °F 93% 30.14 in 10.0 mi Calm Calm - N/A   Overcast
3:11 AM 33.8 °F - 32.0 °F 93% 30.13 in 10.0 mi Calm Calm - N/A   Overcast
3:31 AM 33.8 °F - 32.0 °F 93% 30.12 in 10.0 mi Calm Calm - N/A   Overcast
3:51 AM 33.8 °F - 32.0 °F 93% 30.11 in 10.0 mi Calm Calm - N/A   Overcast
4:11 AM 33.8 °F - 32.0 °F 93% 30.11 in 10.0 mi Calm Calm - N/A   Overcast
4:31 AM 32.0 °F 28.7 °F 32.0 °F 100% 30.10 in 10.0 mi SSE 3.5 mph - N/A   Overcast
4:51 AM 32.0 °F - 32.0 °F 100% 30.10 in 10.0 mi Calm Calm - N/A   Overcast
5:11 AM 32.0 °F 28.7 °F 32.0 °F 100% 30.10 in 7.0 mi SSE 3.5 mph - N/A   Overcast
5:31 AM 32.0 °F - 32.0 °F 100% 30.09 in 7.0 mi Calm Calm - N/A   Overcast
5:51 AM 32.0 °F - 32.0 °F 100% 30.10 in 7.0 mi Calm Calm - N/A   Overcast
6:11 AM 32.0 °F - 32.0 °F 100% 30.09 in 7.0 mi Calm Calm - N/A   Overcast
6:52 AM 33.8 °F - 32.0 °F 93% 30.09 in 7.0 mi Calm Calm - N/A   Overcast
7:12 AM 33.8 °F - 32.0 °F 93% 30.10 in 10.0 mi Calm Calm - N/A   Overcast
7:32 AM 33.8 °F - 32.0 °F 93% 30.11 in 7.0 mi Calm Calm - N/A   Overcast
7:52 AM 33.8 °F - 32.0 °F 93% 30.11 in 7.0 mi Calm Calm - N/A   Overcast
8:12 AM 33.8 °F 30.8 °F 32.0 °F 93% 30.11 in 7.0 mi SSE 3.5 mph - N/A   Overcast
8:32 AM 33.8 °F - 32.0 °F 93% 30.11 in 7.0 mi Calm Calm - N/A   Overcast
8:52 AM 33.8 °F 29.6 °F 32.0 °F 93% 30.10 in 7.0 mi SSE 4.6 mph - N/A   Overcast
9:12 AM 33.8 °F 28.6 °F 32.0 °F 93% 30.09 in 10.0 mi SSE 5.8 mph - N/A   Overcast
9:33 AM 35.6 °F 31.7 °F 32.0 °F 87% 30.09 in 10.0 mi SSE 4.6 mph - N/A   Overcast
9:53 AM 35.6 °F 30.7 °F 32.0 °F 87% 30.09 in 10.0 mi SSE 5.8 mph - N/A   Overcast
10:13 AM 35.6 °F 30.7 °F 32.0 °F 87% 30.09 in 10.0 mi SSE 5.8 mph - N/A   Overcast
10:33 AM 37.4 °F 32.1 °F 32.0 °F 81% 30.09 in 10.0 mi SSE 6.9 mph - N/A   Overcast
10:53 AM 37.4 °F 32.1 °F 30.2 °F 75% 30.09 in 10.0 mi South 6.9 mph - N/A   Overcast
11:13 AM 37.4 °F 32.1 °F 30.2 °F 75% 30.08 in 10.0 mi South 6.9 mph - N/A   Overcast
11:33 AM 39.2 °F 33.6 °F 30.2 °F 70% 30.08 in 10.0 mi South 8.1 mph - N/A   Overcast
11:53 AM 39.2 °F 35.0 °F 30.2 °F 70% 30.07 in 10.0 mi South 5.8 mph - N/A   Overcast
12:13 PM 39.2 °F 33.6 °F 28.4 °F 65% 30.06 in 10.0 mi SSE 8.1 mph - N/A   Overcast
12:34 PM 41.0 °F 36.4 °F 28.4 °F 61% 30.05 in 10.0 mi South 6.9 mph - N/A   Overcast
12:54 PM 41.0 °F 38.0 °F 28.4 °F 61% 30.04 in 10.0 mi South 4.6 mph - N/A   Overcast
1:14 PM 41.0 °F 37.1 °F 26.6 °F 57% 30.03 in 10.0 mi SSW 5.8 mph - N/A   Mostly Cloudy
1:34 PM 41.0 °F 35.8 °F 28.4 °F 61% 30.03 in 10.0 mi SSE 8.1 mph - N/A   Mostly Cloudy
1:54 PM 41.0 °F 35.8 °F 28.4 °F 61% 30.02 in 10.0 mi SSE 8.1 mph - N/A   Mostly Cloudy
2:14 PM 42.8 °F 37.0 °F 28.4 °F 57% 30.02 in 10.0 mi South 10.4 mph - N/A   Overcast
2:34 PM 42.8 °F 38.6 °F 28.4 °F 57% 30.01 in 10.0 mi SSE 6.9 mph - N/A   Mostly Cloudy
2:49 PM 42.8 °F 39.3 °F 28.4 °F 57% 30.01 in 10.0 mi SSE 5.8 mph - N/A   Overcast
3:10 PM 42.8 °F - 26.6 °F 53% 30.01 in 10.0 mi Calm Calm - N/A   Overcast
3:30 PM 42.8 °F 39.3 °F 28.4 °F 57% 30.01 in 10.0 mi South 5.8 mph - N/A   Overcast
3:50 PM 42.8 °F 37.5 °F 28.4 °F 57% 30.00 in 10.0 mi SSE 9.2 mph - N/A   Overcast
4:10 PM 41.0 °F 35.8 °F 28.4 °F 61% 30.00 in 10.0 mi SSE 8.1 mph - N/A   Mostly Cloudy
4:30 PM 41.0 °F 37.1 °F 28.4 °F 61% 30.00 in 10.0 mi SSE 5.8 mph - N/A   Overcast
5:10 PM 41.0 °F 39.0 °F 28.4 °F 61% 30.00 in 10.0 mi SE 3.5 mph - N/A   Overcast
5:30 PM 39.2 °F 35.9 °F 30.2 °F 70% 30.00 in 10.0 mi SE 4.6 mph - N/A   Overcast
5:50 PM 39.2 °F 34.2 °F 30.2 °F 70% 30.00 in 10.0 mi SE 6.9 mph - N/A   Overcast
6:11 PM 37.4 °F 32.1 °F 30.2 °F 75% 30.00 in 10.0 mi SE 6.9 mph - N/A   Overcast
6:31 PM 37.4 °F 32.8 °F 30.2 °F 75% 30.01 in 10.0 mi SE 5.8 mph - N/A   Overcast
6:51 PM 37.4 °F 34.9 °F 30.2 °F 75% 30.01 in 10.0 mi SE 3.5 mph - N/A   Overcast
7:11 PM 37.4 °F 34.9 °F 30.2 °F 75% 30.01 in 10.0 mi SE 3.5 mph - N/A   Mostly Cloudy
7:31 PM 37.4 °F 33.8 °F 30.2 °F 75% 30.01 in 10.0 mi SE 4.6 mph - N/A   Mostly Cloudy
7:51 PM 37.4 °F 32.8 °F 30.2 °F 75% 30.01 in 10.0 mi SE 5.8 mph - N/A   Mostly Cloudy
8:11 PM 37.4 °F 33.8 °F 30.2 °F 75% 30.01 in 10.0 mi SE 4.6 mph - N/A   Scattered Clouds
8:31 PM 35.6 °F 32.8 °F 30.2 °F 81% 30.01 in 10.0 mi SE 3.5 mph - N/A   Scattered Clouds
8:51 PM 35.6 °F 32.8 °F 30.2 °F 81% 30.01 in 10.0 mi ESE 3.5 mph - N/A   Scattered Clouds
9:12 PM 35.6 °F 30.7 °F 32.0 °F 87% 30.01 in 10.0 mi ESE 5.8 mph - N/A   Mostly Cloudy
9:32 PM 35.6 °F 32.8 °F 30.2 °F 81% 30.01 in 10.0 mi SE 3.5 mph - N/A   Mostly Cloudy
9:52 PM 33.8 °F 30.8 °F 30.2 °F 87% 30.02 in 10.0 mi SE 3.5 mph - N/A   Mostly Cloudy
10:12 PM 33.8 °F 28.6 °F 30.2 °F 87% 30.02 in 10.0 mi ESE 5.8 mph - N/A   Mostly Cloudy
10:32 PM 33.8 °F 28.6 °F 30.2 °F 87% 30.02 in 10.0 mi ESE 5.8 mph - N/A   Mostly Cloudy
10:52 PM 33.8 °F 29.6 °F 30.2 °F 87% 30.01 in 10.0 mi ESE 4.6 mph - N/A   Scattered Clouds
11:12 PM 33.8 °F 27.7 °F 30.2 °F 87% 30.01 in 10.0 mi ESE 6.9 mph - N/A   Clear
11:32 PM 33.8 °F 28.6 °F 30.2 °F 87% 30.01 in 10.0 mi ESE 5.8 mph - N/A   Clear
11:52 PM 33.8 °F 27.7 °F 30.2 °F 87% 30.01 in 10.0 mi ESE 6.9 mph - N/A   Clear